TSO133 UUEE-URWW

Flight info

Callsign TSO133
Flight time N/A
Altitude 35000
Route K0883F390 TOGMO3H TOGMO M56 ABAGI B105 NIMTA/K0883F380 B105 NATIT NATIT2J
Aircraft B77W/H-SDE1E2E3FGHIJ2J3J4J5M1RWXY/LB1D1

Departure

Time 2026-05-07 18:13
Airport Sheremetyevo International Airport (UUEE)

Arrival

Time N/A
Airport Volgograd International Airport (URWW)
Time Latitude Longitude Altitude Speed Heading
2026-05-07 18:02 55.97641 37.41936 623 ft 21 kts 75°
2026-05-07 18:02 55.97683 37.42215 619 ft 25 kts 73°
2026-05-07 18:02 55.97731 37.42531 617 ft 27 kts 76°
2026-05-07 18:03 55.97773 37.42820 614 ft 25 kts 74°
2026-05-07 18:03 55.97821 37.43132 615 ft 26 kts 75°
2026-05-07 18:03 55.97869 37.43451 619 ft 26 kts 75°
2026-05-07 18:03 55.97898 37.43650 621 ft 8 kts 75°
2026-05-07 18:04 55.97913 37.43756 623 ft 9 kts 74°
2026-05-07 18:04 55.97932 37.43882 624 ft 0 kts 75°
2026-05-07 18:05 55.97932 37.43883 624 ft 0 kts 75°
2026-05-07 18:05 55.97938 37.43923 624 ft 5 kts 76°
2026-05-07 18:05 55.97933 37.44009 624 ft 8 kts 132°
2026-05-07 18:05 55.97926 37.44019 624 ft 0 kts 154°
2026-05-07 18:07 55.97908 37.44032 623 ft 6 kts 158°
2026-05-07 18:07 55.97845 37.44065 622 ft 12 kts 164°
2026-05-07 18:08 55.97741 37.44116 620 ft 18 kts 164°
2026-05-07 18:08 55.97678 37.44146 619 ft 0 kts 164°
2026-05-07 18:12 55.97648 37.44161 619 ft 9 kts 164°
2026-05-07 18:12 55.97556 37.44161 619 ft 17 kts 211°
2026-05-07 18:12 55.97496 37.43895 615 ft 41 kts 255°
2026-05-07 18:12 55.97363 37.42981 607 ft 109 kts 255°
2026-05-07 18:13 55.97118 37.41325 652 ft 161 kts 258°
2026-05-07 18:13 55.96849 37.39302 1108 ft 169 kts 257°
2026-05-07 18:13 55.96549 37.37266 1709 ft 179 kts 255°
2026-05-07 18:13 55.96198 37.35103 2237 ft 187 kts 256°
2026-05-07 18:14 55.95853 37.32787 2614 ft 203 kts 255°
2026-05-07 18:14 55.95477 37.30284 3007 ft 218 kts 255°
2026-05-07 18:14 55.95072 37.27591 3549 ft 229 kts 255°
2026-05-07 18:14 55.94651 37.24799 4139 ft 240 kts 254°
2026-05-07 18:15 55.94223 37.21962 4951 ft 241 kts 253°
2026-05-07 18:15 55.93787 37.19088 5806 ft 240 kts 253°
2026-05-07 18:15 55.93357 37.16252 6656 ft 240 kts 252°
2026-05-07 18:15 55.92922 37.13392 7363 ft 245 kts 252°
2026-05-07 18:16 55.92474 37.10451 8086 ft 248 kts 252°
2026-05-07 18:16 55.92020 37.07481 8753 ft 251 kts 252°
2026-05-07 18:16 55.91658 37.04460 9385 ft 260 kts 264°
2026-05-07 18:16 55.91911 37.01221 9907 ft 272 kts 284°
2026-05-07 18:17 55.92880 36.98258 9888 ft 286 kts 308°
2026-05-07 18:17 55.94475 36.96070 9914 ft 291 kts 321°
2026-05-07 18:17 55.96176 36.94123 9884 ft 292 kts 320°
2026-05-07 18:17 55.98013 36.92496 9877 ft 302 kts 341°
2026-05-07 18:18 56.00146 36.92317 9901 ft 318 kts
2026-05-07 18:18 56.02242 36.93753 10483 ft 327 kts 26°
2026-05-07 18:18 56.04167 36.95806 11423 ft 323 kts 30°
2026-05-07 18:18 56.06041 36.97980 12188 ft 326 kts 30°
2026-05-07 18:19 56.07917 37.00181 13002 ft 329 kts 30°
2026-05-07 18:19 56.09833 37.02436 13684 ft 334 kts 32°
2026-05-07 18:19 56.11520 37.05309 13862 ft 341 kts 53°
2026-05-07 18:19 56.12593 37.09235 14015 ft 362 kts 74°
2026-05-07 18:20 56.13224 37.13587 14634 ft 369 kts 77°
2026-05-07 18:20 56.13829 37.18065 14851 ft 371 kts 78°
2026-05-07 18:20 56.14134 37.22612 14873 ft 368 kts 92°
2026-05-07 18:20 56.13835 37.27154 14931 ft 364 kts 107°
2026-05-07 18:21 56.12912 37.31324 14883 ft 359 kts 124°
2026-05-07 18:21 56.11382 37.34836 15183 ft 366 kts 141°
2026-05-07 18:21 56.09459 37.37702 16305 ft 358 kts 149°
2026-05-07 18:21 56.07421 37.40143 17340 ft 355 kts 153°
2026-05-07 18:22 56.05298 37.42373 18121 ft 358 kts 156°
2026-05-07 18:22 56.03825 37.43766 18615 ft 361 kts 158°
2026-05-07 18:22 56.00827 37.46421 19633 ft 367 kts 159°
2026-05-07 18:22 55.98541 37.48425 19890 ft 374 kts 154°
2026-05-07 18:23 55.96405 37.51150 19906 ft 378 kts 141°
2026-05-07 18:23 55.94620 37.54619 19910 ft 383 kts 129°
2026-05-07 18:23 55.93249 37.58804 20421 ft 398 kts 115°
2026-05-07 18:23 55.92422 37.63418 21442 ft 397 kts 102°
2026-05-07 18:24 55.91974 37.68240 22341 ft 398 kts 101°
2026-05-07 18:24 55.91440 37.73067 23002 ft 401 kts 109°
2026-05-07 18:24 55.90435 37.77688 23624 ft 403 kts 120°
2026-05-07 18:24 55.89115 37.82089 24251 ft 405 kts 124°
2026-05-07 18:25 55.87491 37.86103 24807 ft 407 kts 135°
2026-05-07 18:25 55.85463 37.89571 25363 ft 407 kts 145°
2026-05-07 18:25 55.83110 37.92328 25943 ft 407 kts 156°
2026-05-07 18:25 55.80524 37.94274 26510 ft 407 kts 167°
2026-05-07 18:26 55.77768 37.95363 27049 ft 407 kts 178°
2026-05-07 18:26 55.74958 37.95541 27601 ft 406 kts 188°
2026-05-07 18:26 55.72169 37.94841 28165 ft 406 kts 197°
2026-05-07 18:26 55.69471 37.93391 28700 ft 407 kts 202°
2026-05-07 18:27 55.66775 37.91974 29347 ft 411 kts 198°
2026-05-07 18:27 55.63938 37.90979 29991 ft 416 kts 193°
2026-05-07 18:27 55.61030 37.90358 30401 ft 425 kts 189°
2026-05-07 18:27 55.58040 37.90025 30546 ft 440 kts 185°
2026-05-07 18:28 55.54927 37.89925 30572 ft 457 kts 183°
2026-05-07 18:28 55.51706 37.90035 30576 ft 474 kts 181°
2026-05-07 18:28 55.48304 37.90302 30613 ft 490 kts 180°
2026-05-07 18:28 55.44827 37.90675 30856 ft 501 kts 179°
2026-05-07 18:29 55.41334 37.91542 31534 ft 505 kts 169°
2026-05-07 18:29 55.37962 37.93367 32525 ft 502 kts 160°
2026-05-07 18:29 55.34835 37.96020 33469 ft 499 kts 152°
2026-05-07 18:29 55.31934 37.99263 34228 ft 497 kts 148°
2026-05-07 18:30 55.29049 38.02653 34783 ft 498 kts 148°
2026-05-07 18:30 55.26141 38.06075 34896 ft 502 kts 148°
2026-05-07 18:30 55.23212 38.09516 34907 ft 499 kts 148°
2026-05-07 18:31 55.17429 38.16287 34908 ft 498 kts 147°
2026-05-07 18:31 55.11697 38.22971 34906 ft 497 kts 147°
2026-05-07 18:32 55.05935 38.29664 34906 ft 497 kts 147°
2026-05-07 18:32 55.00159 38.36347 34908 ft 497 kts 147°
2026-05-07 18:33 54.94410 38.42976 34908 ft 497 kts 147°
2026-05-07 18:33 54.88678 38.49562 34912 ft 496 kts 147°
2026-05-07 18:34 54.82947 38.56124 34897 ft 496 kts 147°
2026-05-07 18:34 54.77208 38.62673 34905 ft 496 kts 147°
2026-05-07 18:35 54.71349 38.68980 34892 ft 495 kts 150°
2026-05-07 18:35 54.65456 38.75063 34895 ft 494 kts 150°
2026-05-07 18:36 54.59590 38.81121 34898 ft 495 kts 149°
2026-05-07 18:36 54.53701 38.87214 34902 ft 494 kts 149°
2026-05-07 18:37 54.47829 38.93276 34906 ft 493 kts 149°
2026-05-07 18:37 54.42146 38.99741 34891 ft 494 kts 139°
2026-05-07 18:38 54.37703 39.08603 34900 ft 491 kts 121°
2026-05-07 18:38 54.34827 39.19105 34900 ft 489 kts 111°
2026-05-07 18:39 54.32242 39.29889 34914 ft 488 kts 111°
2026-05-07 18:39 54.29650 39.40610 34911 ft 488 kts 111°
2026-05-07 18:40 54.27048 39.51299 34914 ft 486 kts 111°
2026-05-07 18:40 54.24438 39.61958 34921 ft 486 kts 111°
2026-05-07 18:41 54.21836 39.72530 34920 ft 486 kts 112°
2026-05-07 18:41 54.19223 39.83094 34920 ft 485 kts 112°
2026-05-07 18:42 54.16596 39.93661 34914 ft 483 kts 112°
2026-05-07 18:42 54.13976 40.04150 34918 ft 485 kts 112°
2026-05-07 18:43 54.11440 40.14782 34912 ft 483 kts 107°
2026-05-07 18:43 54.09523 40.25787 34918 ft 483 kts 105°
2026-05-07 18:44 54.07646 40.36652 34919 ft 481 kts 105°
2026-05-07 18:44 54.05745 40.47562 34927 ft 482 kts 105°
2026-05-07 18:45 54.03827 40.58490 34935 ft 481 kts 105°
2026-05-07 18:45 54.01903 40.69370 34934 ft 481 kts 106°
2026-05-07 18:46 53.99974 40.80211 34938 ft 481 kts 106°
2026-05-07 18:46 53.98039 40.91020 34937 ft 480 kts 106°
2026-05-07 18:47 53.96105 41.01758 34934 ft 478 kts 106°
2026-05-07 18:47 53.94257 41.12632 34940 ft 480 kts 105°
2026-05-07 18:48 53.92488 41.23510 34940 ft 480 kts 105°
2026-05-07 18:48 53.90707 41.34352 34940 ft 481 kts 105°
2026-05-07 18:49 53.88900 41.45247 34939 ft 482 kts 105°
2026-05-07 18:49 53.87077 41.56165 34938 ft 481 kts 105°
2026-05-07 18:50 53.85248 41.67038 34938 ft 481 kts 105°
2026-05-07 18:50 53.83412 41.77876 34938 ft 481 kts 106°
2026-05-07 18:51 53.81558 41.88709 34937 ft 481 kts 106°
2026-05-07 18:51 53.79689 41.99553 34940 ft 482 kts 106°
2026-05-07 18:52 53.77816 42.10361 34940 ft 482 kts 106°
2026-05-07 18:52 53.75910 42.21291 34948 ft 482 kts 106°
2026-05-07 18:53 53.74008 42.32130 34956 ft 482 kts 106°
2026-05-07 18:53 53.72083 42.43037 34956 ft 483 kts 106°
2026-05-07 18:54 53.70073 42.53865 34951 ft 482 kts 111°
2026-05-07 18:54 53.66692 42.63576 34952 ft 484 kts 129°
2026-05-07 18:55 53.61727 42.71125 34954 ft 484 kts 147°
2026-05-07 18:55 53.55759 42.76163 34957 ft 484 kts 156°
2026-05-07 18:56 53.49574 42.80697 34957 ft 485 kts 157°
2026-05-07 18:56 53.43379 42.85188 34957 ft 485 kts 157°
2026-05-07 18:57 53.37205 42.89631 34956 ft 486 kts 157°
2026-05-07 18:57 53.31002 42.94072 34953 ft 487 kts 158°
2026-05-07 18:58 53.24760 42.98523 34951 ft 488 kts 158°
2026-05-07 18:58 53.18514 43.02959 34951 ft 487 kts 158°
2026-05-07 18:59 53.12315 43.07359 34958 ft 487 kts 156°
2026-05-07 18:59 53.06155 43.11951 34959 ft 487 kts 156°
2026-05-07 19:00 52.99976 43.16555 34960 ft 487 kts 156°
2026-05-07 19:00 52.93805 43.21130 34961 ft 488 kts 156°
2026-05-07 19:01 52.87609 43.25705 34961 ft 488 kts 156°
2026-05-07 19:01 52.81422 43.30258 34963 ft 486 kts 156°
2026-05-07 19:02 52.75217 43.34808 34964 ft 487 kts 156°
2026-05-07 19:02 52.69058 43.39309 34964 ft 486 kts 156°
2026-05-07 19:03 52.62834 43.43843 34969 ft 486 kts 156°
2026-05-07 19:03 52.56649 43.48335 34965 ft 485 kts 156°
2026-05-07 19:04 52.50496 43.52790 34961 ft 486 kts 156°
2026-05-07 19:04 52.44311 43.57254 34959 ft 486 kts 156°
2026-05-07 19:05 52.38132 43.61700 34960 ft 485 kts 156°
2026-05-07 19:05 52.31946 43.66137 34965 ft 485 kts 157°
2026-05-07 19:06 52.25837 43.70506 34972 ft 484 kts 157°
2026-05-07 19:06 52.16591 43.77094 34976 ft 485 kts 157°
2026-05-07 19:07 52.10404 43.81485 34976 ft 484 kts 157°
2026-05-07 19:07 52.04231 43.85852 34978 ft 483 kts 157°
2026-05-07 19:08 51.98095 43.90181 34979 ft 484 kts 157°
2026-05-07 19:08 51.91910 43.94531 34979 ft 484 kts 157°
2026-05-07 19:09 51.85720 43.98872 34976 ft 486 kts 157°
2026-05-07 19:09 51.79487 44.03229 34974 ft 487 kts 157°
2026-05-07 19:10 51.73312 44.07533 34972 ft 488 kts 157°
2026-05-07 19:10 51.67085 44.11861 34972 ft 487 kts 157°
2026-05-07 19:11 51.60884 44.16156 34968 ft 489 kts 157°
2026-05-07 19:11 51.54636 44.20473 34969 ft 490 kts 157°
2026-05-07 19:12 51.48378 44.24782 34969 ft 491 kts 157°
2026-05-07 19:12 51.42100 44.29093 34972 ft 491 kts 157°
2026-05-07 19:13 51.35815 44.33395 34976 ft 491 kts 157°
2026-05-07 19:13 51.29544 44.37675 34976 ft 492 kts 157°
2026-05-07 19:14 51.23267 44.41947 34976 ft 493 kts 157°
2026-05-07 19:14 51.16822 44.45575 34973 ft 491 kts 169°
2026-05-07 19:15 51.10013 44.46205 34978 ft 491 kts 183°
2026-05-07 19:15 51.03219 44.45647 34975 ft 491 kts 184°
2026-05-07 19:16 50.96412 44.45043 34977 ft 492 kts 184°
2026-05-07 19:16 50.89614 44.44426 34978 ft 491 kts 184°
2026-05-07 19:17 50.82801 44.43802 34973 ft 491 kts 184°
2026-05-07 19:17 50.76005 44.43176 34976 ft 492 kts 184°
2026-05-07 19:18 50.69192 44.42548 34974 ft 493 kts 184°
2026-05-07 19:18 50.62377 44.41921 34973 ft 493 kts 184°
2026-05-07 19:19 50.55511 44.41291 34962 ft 490 kts 184°
2026-05-07 19:19 50.52152 44.40983 34805 ft 485 kts 184°
2026-05-07 19:19 50.48784 44.40675 34163 ft 485 kts 184°
2026-05-07 19:20 50.45415 44.40366 33059 ft 492 kts 184°
2026-05-07 19:20 50.42025 44.40055 31848 ft 500 kts 184°
2026-05-07 19:20 50.38540 44.39737 30749 ft 505 kts 183°
2026-05-07 19:20 50.35061 44.39420 30003 ft 502 kts 183°
2026-05-07 19:21 50.31607 44.39106 29433 ft 490 kts 183°
2026-05-07 19:21 50.28223 44.38799 28801 ft 481 kts 183°
2026-05-07 19:21 50.24948 44.38502 28012 ft 476 kts 183°
2026-05-07 19:21 50.21643 44.38203 27094 ft 474 kts 182°
2026-05-07 19:22 50.18370 44.37907 26192 ft 471 kts 182°
2026-05-07 19:22 50.15144 44.37615 25380 ft 466 kts 182°
2026-05-07 19:22 50.11942 44.37326 24651 ft 459 kts 182°
2026-05-07 19:22 50.08814 44.37044 23932 ft 452 kts 182°
2026-05-07 19:23 50.05689 44.36763 23149 ft 447 kts 182°
2026-05-07 19:23 50.02627 44.36488 22364 ft 443 kts 182°
2026-05-07 19:23 49.99560 44.36212 21593 ft 438 kts 182°
2026-05-07 19:23 49.96581 44.35945 21022 ft 426 kts 182°
2026-05-07 19:24 49.93659 44.35682 20499 ft 411 kts 182°
2026-05-07 19:24 49.90872 44.35433 19804 ft 402 kts 182°
2026-05-07 19:24 49.88105 44.35186 18995 ft 400 kts 182°
2026-05-07 19:24 49.85318 44.34938 18285 ft 399 kts 181°
2026-05-07 19:25 49.82590 44.34695 17666 ft 397 kts 181°
2026-05-07 19:25 49.79842 44.34451 17117 ft 392 kts 181°
2026-05-07 19:25 49.77149 44.34211 16579 ft 387 kts 181°
2026-05-07 19:25 49.74527 44.33978 16233 ft 372 kts 181°
2026-05-07 19:26 49.71981 44.33751 15801 ft 359 kts 181°
2026-05-07 19:26 49.69526 44.33534 15196 ft 353 kts 181°
2026-05-07 19:26 49.67081 44.33318 14476 ft 351 kts 181°
2026-05-07 19:26 49.64664 44.33105 13776 ft 349 kts 181°
2026-05-07 19:27 49.62284 44.32895 13122 ft 345 kts 181°
2026-05-07 19:27 49.59906 44.32686 12520 ft 339 kts 181°
2026-05-07 19:27 49.57616 44.32482 12248 ft 323 kts 181°
2026-05-07 19:27 49.55400 44.32339 11886 ft 312 kts 177°
2026-05-07 19:28 49.53256 44.32400 11332 ft 310 kts 176°
2026-05-07 19:28 49.51098 44.32475 10746 ft 308 kts 177°
2026-05-07 19:28 49.48985 44.32523 10225 ft 305 kts 177°
2026-05-07 19:28 49.46864 44.32560 9681 ft 303 kts 177°
2026-05-07 19:29 49.44776 44.32592 9124 ft 301 kts 177°
2026-05-07 19:29 49.42707 44.32623 8627 ft 297 kts 177°
2026-05-07 19:29 49.40667 44.32653 8127 ft 294 kts 178°
2026-05-07 19:29 49.38630 44.32683 7987 ft 294 kts 178°
2026-05-07 19:30 49.36573 44.32713 7967 ft 295 kts 178°
2026-05-07 19:30 49.34542 44.32742 7860 ft 290 kts 178°
2026-05-07 19:30 49.32532 44.32772 7439 ft 292 kts 178°
2026-05-07 19:30 49.30492 44.32802 7116 ft 290 kts 178°
2026-05-07 19:31 49.28500 44.32831 6820 ft 287 kts 178°
2026-05-07 19:31 49.26503 44.32860 6477 ft 286 kts 178°
2026-05-07 19:31 49.24525 44.32888 6291 ft 278 kts 178°
2026-05-07 19:31 49.22650 44.32915 6207 ft 264 kts 178°
2026-05-07 19:32 49.20854 44.32941 6003 ft 258 kts 178°
2026-05-07 19:32 49.19031 44.32968 5965 ft 261 kts 178°
2026-05-07 19:32 49.17225 44.32995 5948 ft 261 kts 178°
2026-05-07 19:32 49.15413 44.33112 5659 ft 259 kts 167°
2026-05-07 19:33 49.13731 44.34035 5229 ft 260 kts 152°
2026-05-07 19:33 49.12127 44.35255 4924 ft 258 kts 150°
2026-05-07 19:33 49.10533 44.36503 4630 ft 255 kts 150°
2026-05-07 19:33 49.08947 44.37743 4293 ft 255 kts 150°
2026-05-07 19:34 49.07380 44.38963 3972 ft 255 kts 150°
2026-05-07 19:34 49.05878 44.40132 3665 ft 254 kts 150°
2026-05-07 19:34 49.04303 44.41355 3369 ft 253 kts 150°
2026-05-07 19:34 49.02748 44.42563 3060 ft 252 kts 151°
2026-05-07 19:35 49.01183 44.43777 2987 ft 252 kts 150°
2026-05-07 19:35 48.99627 44.44983 2963 ft 251 kts 151°
2026-05-07 19:35 48.98127 44.46146 2965 ft 252 kts 151°
2026-05-07 19:35 48.96554 44.47363 2961 ft 248 kts 151°
2026-05-07 19:36 48.95039 44.48534 2962 ft 242 kts 151°
2026-05-07 19:36 48.93545 44.49685 2964 ft 241 kts 152°
2026-05-07 19:36 48.92019 44.50787 2962 ft 241 kts 153°
2026-05-07 19:36 48.90521 44.51860 2875 ft 238 kts 153°
2026-05-07 19:37 48.89019 44.52945 2552 ft 240 kts 153°
2026-05-07 19:37 48.87510 44.53971 2465 ft 239 kts 162°
2026-05-07 19:37 48.85872 44.54057 2451 ft 239 kts 195°
2026-05-07 19:37 48.84393 44.52890 2459 ft 238 kts 219°
2026-05-07 19:38 48.83404 44.50975 2461 ft 233 kts 248°
2026-05-07 19:38 48.82789 44.48708 2425 ft 235 kts 250°
2026-05-07 19:38 48.82108 44.46421 2102 ft 234 kts 247°
2026-05-07 19:38 48.81414 44.44248 1787 ft 225 kts 246°
2026-05-07 19:39 48.80769 44.42204 1513 ft 208 kts 246°
2026-05-07 19:39 48.80171 44.40309 1245 ft 194 kts 246°
2026-05-07 19:39 48.79619 44.38570 988 ft 173 kts 245°
2026-05-07 19:39 48.79118 44.36987 760 ft 160 kts 244°